Regional Weather Roundup
Issued by NWS

Home | Current Version | Previous Version | Graphics & Text | Print | Product List | Glossary On
Versions: 1 2 3 4 5 6 7 8 9 10 11 12 13 14 15 16 17 18 19 20 21 22 23 24 25 26 27 28 29 30 31 32 33 34 35 36 37 38 39 40 41 42 43 44 45 46 47 48 49 50
000
ASUS44 KMEG 062010
RWRTN
TENNESSEE HOURLY STATE WEATHER ROUNDUP
NATIONAL WEATHER SERVICE MEMPHIS TN
300 PM CDT WED MAY 06 2015

TNZ002-004-019-021-049-052-054-088>092-062100-
WEST TENNESSEE

CITY           SKY/WX    TMP DP  RH WIND       PRES   REMARKS
MEMPHIS INTL   PTSUNNY   84  49  29 SE7G18    30.08F
NWS MEMPHIS      N/A     83 N/A N/A MISG        N/A
JACKSON        MOSUNNY   84  50  30 S9G17     30.10F
DYERSBURG      MOSUNNY   82  48  30 SE12      30.10F
PARIS          SUNNY     81  54  39 E13       30.12F
LEXINGTON      SUNNY     82  48  30 VRB5      30.10F
$$

TNZ008-025-027-028-033-062-065-066-062100-
NORTH MIDDLE TENNESSEE

CITY           SKY/WX    TMP DP  RH WIND       PRES   REMARKS
NASHVILLE      MOSUNNY   86  54  33 NE6       30.13F
CLARKSVILLE    MOSUNNY   83  57  41 E10       30.11F
SMYRNA         MOSUNNY   83  56  39 CALM      30.12F
COOKEVILLE     PTSUNNY   84  55  37 CALM      30.13F
CROSSVILLE     MOSUNNY   82  48  30 SE9       30.17F
$$

TNZ061-075-076-078-094-096-097-062100-
SOUTH MIDDLE TENNESSEE

CITY           SKY/WX    TMP DP  RH WIND       PRES   REMARKS
FAYETTEVILLE     N/A     79  48  34 SE6       30.13F
TULLAHOMA      MOSUNNY   81  48  32 CALM      30.14F
WINCHESTER     MOSUNNY   82  52  34 SE10      30.13F
MCMINNVILLE    MOSUNNY   82  57  42 W5        30.13F
COLUMBIA       MOSUNNY   82  55  39 VRB6      30.11F
SHELBYVILLE    PTSUNNY   84  59  42 SE5       30.13F
$$

TNZ017-018-042-046-047-062100-
NORTHEAST TENNESSEE

CITY           SKY/WX    TMP DP  RH WIND       PRES   REMARKS
TRI CITIES     PTSUNNY   80  55  42 S10       30.14F THUNDER
$$

TNZ012-013-036-069-073-074-062100-
CENTRAL EAST TENNESSEE

CITY           SKY/WX    TMP DP  RH WIND       PRES   REMARKS
KNOXVILLE      MOSUNNY   85  53  33 N6        30.11F
OAK RIDGE      MOSUNNY   85  54  34 MISG      30.13F
GATLINBURG     CLEAR     82  54  36 E3        30.10F
MORRISTOWN       N/A     82  55  39 N9        30.14F
$$

TNZ083-085-099-062100-
SOUTHEAST TENNESSEE

CITY           SKY/WX    TMP DP  RH WIND       PRES   REMARKS
CHATTANOOGA    MOSUNNY   83  52  34 VRB6      30.13F
$$

SKY/WX REPORTED AS FAIR MEANS FEW OR NO CLOUDS BELOW
12 THOUSAND FEET.




USA.gov is the U.S. government's official web portal to all federal, state and local government web resources and services.